Location: Udine
(46.0620°N, 13.2420°E)
Time: 02:31:37
(UTC+02:00)

ISS - Pass Details

Date: 12 May 2021
Orbit: 417 x 422 km, 51.6° (Epoch: 14 June)

Event Time Altitude Azimuth Distance (km) Brightness Sun altitude
Rises 04:25:02 0° 297° (WNW) 2,375 -0.1 -11.3°
Reaches altitude 10° 04:27:09 10° 301° (WNW) 1,509 -1.1 -11.0°
Maximum altitude 04:30:31 66° 24° (NNE) 466 -3.3 -10.6°
Drops below altitude 10° 04:33:53 10° 107° (ESE) 1,505 -0.5 -10.1°
Sets 04:35:59 0° 111° (ESE) 2,368 0.5 -9.8°
